This is the latest recevied weather packets stored in our database for station/object KN6KS. If no packets are shown the sender has not sent any weather packets the latest 10 day(s).
| Time | Temp. | Humidity | Pressure | Rain* | Wind** | Luminosity | Snow |
|---|---|---|---|---|---|---|---|
| 1777838976 | 16.67° C | 60% | 1010.3 hPa | 0 mm | - | 709 W/m² | - |
| 1777838672 | 16.67° C | 60% | 1010.2 hPa | 0 mm | - | 674 W/m² | - |
| 1777838368 | 16.67° C | 61% | 1010.3 hPa | 0 mm | - | 678 W/m² | - |
| 1777838066 | 17.22° C | 59% | 1010.3 hPa | 0 mm | - | 697 W/m² | - |
| 1777837762 | 17.22° C | 58% | 1010.4 hPa | 0 mm | - | 709 W/m² | - |
| 1777837459 | 17.22° C | 59% | 1010.5 hPa | 0 mm | - | 668 W/m² | - |
| 1777837155 | 17.22° C | 59% | 1010.7 hPa | 0 mm | - | 652 W/m² | - |
| 1777836850 | 17.78° C | 59% | 1010.6 hPa | 0 mm | - | 684 W/m² | - |
| 1777836546 | 17.78° C | 57% | 1010.6 hPa | 0 mm | - | 701 W/m² | - |
| 1777836242 | 18.33° C | 53% | 1010.7 hPa | 0 mm | - | 704 W/m² | - |
| 1777835938 | 18.33° C | 53% | 1010.6 hPa | 0 mm | - | 718 W/m² | - |
| 1777835636 | 17.78° C | 54% | 1010.5 hPa | 0 mm | - | 725 W/m² | - |
| 1777835332 | 18.33° C | 55% | 1010.6 hPa | 0 mm | - | 712 W/m² | - |
| 1777835030 | 17.78° C | 54% | 1010.6 hPa | 0 mm | - | 724 W/m² | - |
| 1777834726 | 17.22° C | 55% | 1010.9 hPa | 0 mm | - | 730 W/m² | - |
| 1777834423 | 17.22° C | 59% | 1010.9 hPa | 0 mm | - | 729 W/m² | - |
| 1777834123 | 16.67° C | 61% | 1010.6 hPa | 0 mm | - | 726 W/m² | - |
| 1777833819 | 16.11° C | 61% | 1011.1 hPa | 0 mm | - | 743 W/m² | - |
| 1777833515 | 15.56° C | 64% | 1011 hPa | 0 mm | - | 734 W/m² | - |
| 1777833212 | 15.56° C | 65% | 1011.2 hPa | 0 mm | - | 742 W/m² | - |
| 1777832910 | 15.56° C | 66% | 1011 hPa | 0 mm | - | 747 W/m² | - |
| 1777832609 | 15° C | 68% | 1011.1 hPa | 0 mm | - | 749 W/m² | - |
| 1777832305 | 15° C | 69% | 1011.2 hPa | 0 mm | - | 730 W/m² | - |
| 1777832002 | 15° C | 68% | 1011.3 hPa | 0 mm | - | 695 W/m² | - |
| 1777831699 | 15° C | 68% | 1011.3 hPa | 0 mm | - | 677 W/m² | - |
* Rain latest hour (hover to see other rain measurements)
** Current wind speed in m/s (hover to see current wind gust speed)